Tracking 25405 objects as of 26-Jan-2022
HD Live streaming from Space Station
objects crossing your sky now

STARLINK-1845

Track STARLINK-1845 now!
10-day predictions
STARLINK-1845 is classified as:


NORAD ID: 47135
Int'l Code: 2020-088P
Perigee: 552.7 km
Apogee: 555.9 km
Inclination: 53.1 °
Period: 95.6 minutes
Semi major axis: 6925 km
RCS: Unknown
Launch date: November 25, 2020
Source: United States (US)
Launch site: AIR FORCE EASTERN TEST RANGE (AFETR)
aabbcc
Your satellite tracking list
Your tracking list is empty




NASA's NSSDC Master Catalog

Two Line Element Set (TLE):
1 47135U 20088P   22025.79334500  .00001384  00000-0  11178-3 0  9997
2 47135  53.0556 202.8831 0002319  79.4437 280.6813 15.06412137 65301
Source of the keplerian elements: AFSPC